TimePDT,TemperatureF,Dew PointF,Humidity,Sea Level PressureIn,VisibilityMPH,Wind Direction,Wind SpeedMPH,Gust SpeedMPH,PrecipitationIn,Events,Conditions,WindDirDegrees,DateUTC
12:53 AM,43.0,37.0,80,29.95,10.0,West,10.4,-,0.01,Rain,Light Rain,270,2013-04-05 07:53:00
1:53 AM,42.1,37.9,85,29.98,10.0,NW,6.9,-,0.00,,Overcast,310,2013-04-05 08:53:00
2:53 AM,39.9,37.0,89,29.99,10.0,Calm,Calm,-,N/A,,Mostly Cloudy,0,2013-04-05 09:53:00
3:53 AM,39.9,37.0,89,29.99,10.0,Calm,Calm,-,N/A,,Overcast,0,2013-04-05 10:53:00
4:53 AM,39.9,37.9,93,30.00,10.0,Calm,Calm,-,0.00,,Overcast,0,2013-04-05 11:53:00
5:53 AM,39.0,37.9,96,29.99,10.0,Calm,Calm,-,N/A,,Overcast,0,2013-04-05 12:53:00
6:53 AM,39.0,37.0,93,30.00,10.0,SE,3.5,-,N/A,,Overcast,130,2013-04-05 13:53:00
7:53 AM,42.1,37.0,82,30.01,10.0,SSE,8.1,-,0.00,,Mostly Cloudy,160,2013-04-05 14:53:00
8:53 AM,45.0,37.9,76,30.02,10.0,SSE,10.4,-,N/A,,Scattered Clouds,150,2013-04-05 15:53:00
9:53 AM,46.9,35.1,63,30.02,10.0,Calm,Calm,-,N/A,,Overcast,0,2013-04-05 16:53:00
10:53 AM,48.0,34.0,58,30.02,10.0,NW,5.8,-,N/A,,Mostly Cloudy,310,2013-04-05 17:53:00
11:53 AM,50.0,35.1,57,30.01,10.0,WNW,8.1,-,N/A,,Overcast,290,2013-04-05 18:53:00
12:53 PM,53.1,35.1,50,29.99,10.0,West,9.2,17.3,N/A,,Mostly Cloudy,260,2013-04-05 19:53:00
1:53 PM,54.0,35.1,49,29.97,10.0,West,11.5,19.6,N/A,,Mostly Cloudy,260,2013-04-05 20:53:00
2:53 PM,54.0,34.0,47,29.98,10.0,West,19.6,26.5,N/A,,Mostly Cloudy,280,2013-04-05 21:53:00
3:53 PM,52.0,33.1,49,29.98,10.0,WNW,15.0,-,N/A,,Mostly Cloudy,290,2013-04-05 22:53:00
4:53 PM,48.0,36.0,63,30.00,9.0,SSW,16.1,25.3,0.00,Rain,Light Rain,210,2013-04-05 23:53:00
5:53 PM,48.0,39.0,71,29.98,10.0,SSE,6.9,-,0.01,Rain,Light Rain,150,2013-04-06 00:53:00
6:53 PM,46.0,39.0,76,29.99,10.0,SSW,12.7,-,0.01,Rain,Light Rain,200,2013-04-06 01:53:00
7:53 PM,45.0,39.9,82,29.97,10.0,South,9.2,-,0.01,Rain,Light Rain,170,2013-04-06 02:53:00
8:53 PM,45.0,41.0,86,29.98,8.0,WSW,4.6,-,0.03,Rain,Light Rain,250,2013-04-06 03:53:00
9:53 PM,44.1,41.0,89,30.00,10.0,SSW,5.8,-,0.00,Rain,Light Rain,210,2013-04-06 04:53:00
10:53 PM,43.0,39.0,86,29.99,10.0,South,8.1,-,0.00,,Overcast,180,2013-04-06 05:53:00
11:53 PM,41.0,37.0,86,29.98,10.0,South,9.2,-,N/A,,Mostly Cloudy,170,2013-04-06 06:53:00